Saint James, MN

2:18 AM CST on December 10, 2016 (GMT -0600)
Saint James Municipal

Weather History for KJYG - May, 2013

Change the Weather History Date:

Thursday, May 23, 2013

  Actual Average Record
Temperature  
Mean Temperature 54 °F -  
Max Temperature 64 °F 74 °F 93 °F (1964)
Min Temperature 44 °F 51 °F 34 °F (1963)
Degree Days  
Heating Degree Days 11    
Growing Degree Days 4 (Base 50)    
Moisture  
Dew Point 38 °F    
Average Humidity 57    
Maximum Humidity 88    
Minimum Humidity 24    
Precipitation  
Precipitation 0.00 in - - ()
Sea Level Pressure  
Sea Level Pressure 30.21 in    
Wind  
Wind Speed 11 mph (NNE)    
Max Wind Speed 17 mph    
Max Gust Speed 24 mph    
Visibility 10 miles    
Events      
Averages and records for this station are not official NWS values.
T = Trace of Precipitation, MM = Missing Value Source: NWS Daily Summary

Daily Weather History Graph

Daily Weather History Graph

Search for Another Location

Airport or City:

Trip Planner

Search our weather history database for the weather conditions in past years. The results will help you decide how hot, cold, wet, or windy it might be!

Date:

Astronomy

May. 23, 2013 Rise Set
Actual Time 5:44 AM CDT 8:46 PM CDT
Civil Twilight 5:09 AM CDT 9:20 PM CDT
Nautical Twilight 4:25 AM CDT 10:04 PM CDT
Astronomical Twilight 3:33 AM CDT 10:57 PM CDT
Moon 7:17 PM CDT (5/23) 4:33 AM CDT (5/23)
Length of Visible Light 16h 10m
Length of Day
15h 01m
Waxing Gibbous, 97% of the Moon is Illuminated
May 23
Waxing Gibbous
May 24
Full
May 31
Last Quarter
Jun 8
New
Jun 16
First Quarter

Hourly Weather History & Observations

Time (CDT) Temp. Windchill Dew Point Humidity Pressure Visibility Wind Dir Wind Speed Gust Speed Precip Events Conditions
12:15 AM 51.8 °F - 48.2 °F 88% 29.99 in 10.0 mi NNE 12.7 mph 17.3 mph N/A   Overcast
12:35 AM 53.6 °F - 46.4 °F 77% 30.00 in 10.0 mi NNE 11.5 mph 18.4 mph N/A   Overcast
12:55 AM 53.6 °F - 46.4 °F 77% 30.00 in 10.0 mi NNE 11.5 mph - N/A   Overcast
1:15 AM 53.6 °F - 46.4 °F 77% 30.01 in 10.0 mi North 12.7 mph - N/A   Overcast
1:35 AM 53.6 °F - 46.4 °F 77% 30.02 in 10.0 mi North 9.2 mph - N/A   Overcast
1:54 AM 51.8 °F - 44.6 °F 76% 30.03 in 10.0 mi North 6.9 mph - N/A   Scattered Clouds
2:15 AM 51.8 °F - 42.8 °F 71% 30.03 in 10.0 mi North 10.4 mph - N/A   Scattered Clouds
2:35 AM 51.8 °F - 42.8 °F 71% 30.04 in 10.0 mi North 10.4 mph - N/A   Scattered Clouds
2:54 AM 50.0 °F - 42.8 °F 76% 30.05 in 10.0 mi North 10.4 mph - N/A   Clear
3:15 AM 48.2 °F - 42.8 °F 82% 30.06 in 10.0 mi NNW 10.4 mph - N/A   Clear
3:35 AM 48.2 °F - 42.8 °F 82% 30.07 in 10.0 mi NNW 10.4 mph - N/A   Clear
3:55 AM 46.4 °F 41.5 °F 42.8 °F 87% 30.08 in 10.0 mi North 10.4 mph 17.3 mph N/A   Clear
4:15 AM 46.4 °F 40.7 °F 42.8 °F 87% 30.09 in 10.0 mi North 12.7 mph - N/A   Clear
4:35 AM 46.4 °F 41.1 °F 42.8 °F 87% 30.11 in 10.0 mi North 11.5 mph - N/A   Clear
4:55 AM 46.4 °F 41.1 °F 42.8 °F 87% 30.12 in 10.0 mi North 11.5 mph - N/A   Clear
5:15 AM 46.4 °F 41.5 °F 42.8 °F 87% 30.13 in 10.0 mi North 10.4 mph - N/A   Clear
5:35 AM 44.6 °F 39.7 °F 41.0 °F 87% 30.14 in 10.0 mi North 9.2 mph - N/A   Clear
5:55 AM 44.6 °F 39.2 °F 41.0 °F 87% 30.15 in 10.0 mi North 10.4 mph - N/A   Clear
6:15 AM 46.4 °F 41.1 °F 41.0 °F 81% 30.16 in 10.0 mi North 11.5 mph - N/A   Clear
6:35 AM 46.4 °F 41.9 °F 41.0 °F 81% 30.17 in 10.0 mi North 9.2 mph - N/A   Clear
6:55 AM 46.4 °F 41.9 °F 41.0 °F 81% 30.17 in 10.0 mi North 9.2 mph - N/A   Clear
7:15 AM 48.2 °F - 42.8 °F 82% 30.18 in 10.0 mi North 12.7 mph - N/A   Clear
7:35 AM 48.2 °F - 42.8 °F 82% 30.19 in 10.0 mi North 15.0 mph 19.6 mph N/A   Clear
7:55 AM 48.2 °F - 42.8 °F 82% 30.20 in 10.0 mi NNE 15.0 mph - N/A   Clear
8:15 AM 50.0 °F - 41.0 °F 71% 30.21 in 10.0 mi NNE 15.0 mph - N/A   Clear
8:35 AM 51.8 °F - 42.8 °F 71% 30.22 in 10.0 mi North 15.0 mph - N/A   Clear
8:55 AM 51.8 °F - 42.8 °F 71% 30.23 in 10.0 mi North 11.5 mph - N/A   Clear
9:15 AM 51.8 °F - 42.8 °F 71% 30.23 in 10.0 mi North 13.8 mph 17.3 mph N/A   Clear
9:35 AM 53.6 °F - 42.8 °F 67% 30.24 in 10.0 mi North 11.5 mph - N/A   Clear
9:55 AM 53.6 °F - 42.8 °F 67% 30.24 in 10.0 mi North 11.5 mph - N/A   Clear
10:15 AM 55.4 °F - 41.0 °F 58% 30.24 in 10.0 mi North 12.7 mph - N/A   Clear
10:34 AM 55.4 °F - 42.8 °F 63% 30.25 in 10.0 mi North 15.0 mph - N/A   Clear
10:55 AM 55.4 °F - 42.8 °F 63% 30.25 in 10.0 mi North 12.7 mph - N/A   Clear
11:15 AM 55.4 °F - 39.2 °F 54% 30.26 in 10.0 mi NNE 12.7 mph 19.6 mph N/A   Clear
11:35 AM 57.2 °F - 42.8 °F 59% 30.26 in 10.0 mi North 13.8 mph - N/A   Clear
11:55 AM 57.2 °F - 42.8 °F 59% 30.27 in 10.0 mi North 11.5 mph 19.6 mph N/A   Clear
12:15 PM 59.0 °F - 37.4 °F 45% 30.27 in 10.0 mi North 13.8 mph - N/A   Clear
12:35 PM 60.8 °F - 39.2 °F 45% 30.27 in 10.0 mi North 10.4 mph 20.7 mph N/A   Clear
12:55 PM 60.8 °F - 35.6 °F 39% 30.26 in 10.0 mi NNE 11.5 mph - N/A   Clear
1:15 PM 60.8 °F - 37.4 °F 42% 30.26 in 10.0 mi NNE 15.0 mph 21.9 mph N/A   Clear
1:35 PM 60.8 °F - 35.6 °F 39% 30.27 in 10.0 mi North 10.4 mph 15.0 mph N/A   Clear
1:55 PM 62.6 °F - 35.6 °F 37% 30.26 in 10.0 mi North 11.5 mph 21.9 mph N/A   Clear
2:15 PM 62.6 °F - 33.8 °F 34% 30.26 in 10.0 mi North 12.7 mph 20.7 mph N/A   Clear
2:34 PM 62.6 °F - 33.8 °F 34% 30.26 in 10.0 mi NE 11.5 mph 18.4 mph N/A   Clear
2:55 PM 62.6 °F - 30.2 °F 30% 30.26 in 10.0 mi NNE 16.1 mph - N/A   Clear
3:15 PM 64.4 °F - 33.8 °F 32% 30.26 in 10.0 mi NNE 17.3 mph 24.2 mph N/A   Clear
3:34 PM 64.4 °F - 33.8 °F 32% 30.26 in 10.0 mi NNE 13.8 mph 19.6 mph N/A   Clear
3:55 PM 64.4 °F - 33.8 °F 32% 30.26 in 10.0 mi NNE 13.8 mph 18.4 mph N/A   Clear
4:15 PM 64.4 °F - 32.0 °F 30% 30.26 in 10.0 mi NE 11.5 mph 18.4 mph N/A   Clear
4:34 PM 64.4 °F - 30.2 °F 28% 30.26 in 10.0 mi NNE 13.8 mph 18.4 mph N/A   Clear
4:55 PM 64.4 °F - 30.2 °F 28% 30.26 in 10.0 mi NNE 10.4 mph 18.4 mph N/A   Clear
5:15 PM 64.4 °F - 30.2 °F 28% 30.26 in 10.0 mi NNE 13.8 mph 18.4 mph N/A   Clear
5:35 PM 64.4 °F - 30.2 °F 28% 30.26 in 10.0 mi NE 10.4 mph - N/A   Clear
5:54 PM 64.4 °F - 28.4 °F 26% 30.27 in 10.0 mi NNE 11.5 mph 17.3 mph N/A   Clear
6:15 PM 64.4 °F - 28.4 °F 26% 30.27 in 10.0 mi NNE 11.5 mph 17.3 mph N/A   Clear
6:35 PM 64.4 °F - 28.4 °F 26% 30.27 in 10.0 mi NE 9.2 mph - N/A   Clear
6:54 PM 64.4 °F - 26.6 °F 24% 30.27 in 10.0 mi NE 4.6 mph - N/A   Clear
7:15 PM 62.6 °F - 26.6 °F 26% 30.27 in 10.0 mi Calm Calm - N/A   Clear
7:35 PM 62.6 °F - 26.6 °F 26% 30.27 in 10.0 mi NE 9.2 mph - N/A   Clear
7:54 PM 62.6 °F - 26.6 °F 26% 30.27 in 10.0 mi ENE 9.2 mph - N/A   Clear
8:15 PM 60.8 °F - 30.2 °F 31% 30.27 in 10.0 mi East 5.8 mph - N/A   Clear
8:35 PM 57.2 °F - 33.8 °F 41% 30.27 in 10.0 mi Calm Calm - N/A   Clear
8:54 PM 55.4 °F - 35.6 °F 47% 30.28 in 10.0 mi Calm Calm - N/A   Clear
9:15 PM 53.6 °F - 37.4 °F 54% 30.29 in 10.0 mi Calm Calm - N/A   Clear
9:35 PM 53.6 °F - 37.4 °F 54% 30.29 in 10.0 mi Calm Calm - N/A   Clear
9:55 PM 53.6 °F - 35.6 °F 51% 30.30 in 10.0 mi Calm Calm - N/A   Clear
10:14 PM 53.6 °F - 37.4 °F 54% 30.31 in 10.0 mi Calm Calm - N/A   Clear
10:35 PM 51.8 °F - 37.4 °F 58% 30.31 in 10.0 mi Calm Calm - N/A   Clear
10:55 PM 51.8 °F - 35.6 °F 54% 30.32 in 10.0 mi Calm Calm - N/A   Clear
11:15 PM 51.8 °F - 35.6 °F 54% 30.32 in 10.0 mi Calm Calm - N/A   Clear
11:34 PM 51.8 °F - 35.6 °F 54% 30.32 in 10.0 mi Calm Calm - N/A   Clear
11:55 PM 51.8 °F - 35.6 °F 54% 30.33 in 10.0 mi Calm Calm - N/A   Clear